Regional Weather Roundup
Issued by NWS

Home | Current Version | Previous Version | Text Only | Print | Product List | Glossary On
Versions: 1 2 3 4 5 6 7 8 9 10 11 12 13 14 15 16 17 18 19 20 21 22 23 24 25 26 27 28 29 30 31 32 33 34 35 36 37 38 39 40 41 42 43 44 45 46 47 48 49 50
696
ASUS44 KJAN 302210
RWRMS

MISSISSIPPI HOURLY WEATHER ROUNDUP
NATIONAL WEATHER SERVICE JACKSON MS
400 PM CST FRI JAN 30 2015

NOTE: "FAIR: INDICATES FEW OR NO CLOUDS BELOW 12,000 FEET WITH NO
SIGNIFICANT WEATHER AND/OR OBSTRUCTIONS TO VISIBILITY.

MSZ001>002-007>008-010>013-018>021-025>028-034>036-302300-
NORTHWEST MISSISSIPPI

CITY           SKY/WX    TMP DP  RH WIND       PRES   REMARKS
CLARKSDALE     FAIR      48  28  46 N12       30.44S
CLEVELAND      FAIR      50  32  50 MISG      30.42S
GREENWOOD      SUNNY     54  28  36 N8        30.39F
GREENVILLE     FAIR      51  29  42 NE14      30.41S
GRENADA        FAIR      52  27  37 N8        30.41S
OLIVE BRANCH   MOSUNNY   46  25  42 N6        30.42F
OXFORD         FAIR      48  23  37 N6        30.41F
TUNICA         CLEAR     48  28  46 N9        30.44S
$$

MSZ003>006-009-014>017-022>024-029>033-037>039-302300-
NORTHEAST MISSISSIPPI

CITY           SKY/WX    TMP DP  RH WIND       PRES   REMARKS
COLUMBUS AFB   SUNNY     52  24  33 NW12      30.38F
CORINTH        FAIR      50  21  32 VRB3      30.41R
GOLDN TRIANGLE SUNNY     54  28  37 NW12      30.38S
STARKVILLE     FAIR      50  30  46 N8        30.38S
TUPELO         SUNNY     50  24  36 NE7       30.40S
$$

MSZ040-058-302300-
CENTRAL MISSISSIPPI

CITY           SKY/WX    TMP DP  RH WIND       PRES   REMARKS
JACKSON INTL   PTSUNNY   56  27  32 N12       30.36S
JACKSON HAWKNS SUNNY     56  26  31 NE9       30.37R
MERIDIAN KEY   MOSUNNY   56  27  32 NE9       30.35S
MERIDIAN NAS   PTSUNNY   54  27  35 N8        30.37R
RAYMOND        FAIR      55  50  82 MISG      30.37R
VICKSBURG      SUNNY     54  33  45 N13       30.38S
$$

MSZ059>079-302300-
SOUTH MISSISSIPPI

CITY           SKY/WX    TMP DP  RH WIND       PRES   REMARKS
BROOKHAVEN     FAIR      55  32  41 N7        30.35S
HATTIESBURG    PTSUNNY   59  28  30 NE9       30.33S
MCCOMB         PTSUNNY   59  28  30 N8        30.33S
NATCHEZ        PTSUNNY   55  30  38 NW8       30.37R
PINE BELT      PTSUNNY   57  27  30 N7        30.34S
$$

MSZ080>082-302300-
COASTAL MISSISSIPPI

CITY           SKY/WX    TMP DP  RH WIND       PRES   REMARKS
BAY ST LOUIS   SUNNY     61  23  23 N12       30.31
BILOXI         PTSUNNY   60  30  32 NE8       30.30S
PASCAGOULA     PTSUNNY   61  30  31 N10       30.30S
GULFPORT       MOSUNNY   61  29  29 N9G18     30.30S
$$



USA.gov is the U.S. government's official web portal to all federal, state and local government web resources and services.